Location: Arrodets-la-Barthe
(43.0306°N, 0.2829°E)
Time: 06:16:29
(UTC+00:00)

CUBEBUG 2 - Pass Details

Date: 04 April 2023
Orbit: 577 x 685 km, 97.8° (Epoch: 03 June)

Event Time Altitude Azimuth Distance (km) Brightness Sun altitude
Rises 01:11:51 0° 33° (NNE) 3,051 ? -38.9°
Reaches altitude 10° 01:15:22 10° 61° (ENE) 2,113 ? -38.7°
Enters shadow 01:15:35 11° 63° (ENE) 2,075 ? -38.7°
